Sturgeon Lake, MN

10:36 PM CST on February 26, 2017 (GMT -0600)
Moose Lake-Carlton County

Weather History for KMZH - August, 2014

Change the Weather History Date:

Friday, August 22, 2014

  Actual Average Record
Temperature  
Mean Temperature 64 °F -  
Max Temperature 68 °F 75 °F 91 °F (2003)
Min Temperature 60 °F 52 °F 34 °F (1967)
Degree Days  
Heating Degree Days 1    
Growing Degree Days 14 (Base 50)    
Moisture  
Dew Point 61 °F    
Average Humidity 91    
Maximum Humidity 100    
Minimum Humidity 83    
Precipitation  
Precipitation 0.00 in - - ()
Sea Level Pressure  
Sea Level Pressure 29.97 in    
Wind  
Wind Speed 3 mph (NE)    
Max Wind Speed 6 mph    
Max Gust Speed -    
Visibility 7 miles    
Events Rain    
Averages and records for this station are not official NWS values.
T = Trace of Precipitation, MM = Missing Value Source: NWS Daily Summary

Daily Weather History Graph

Daily Weather History Graph

Search for Another Location

Airport or City:

Trip Planner

Search our weather history database for the weather conditions in past years. The results will help you decide how hot, cold, wet, or windy it might be!

Date:

Astronomy

Aug. 22, 2014 Rise Set
Actual Time 6:18 AM CDT 8:08 PM CDT
Civil Twilight 5:46 AM CDT 8:40 PM CDT
Nautical Twilight 5:07 AM CDT 9:19 PM CDT
Astronomical Twilight 4:23 AM CDT 10:02 PM CDT
Moon 3:37 AM CDT (8/22) 6:20 PM CDT (8/22)
Length of Visible Light 14h 53m
Length of Day
13h 49m
Waning Crescent, 7% of the Moon is Illuminated
Aug 22
Waning Crescent
Aug 25
New
Sep 2
First Quarter
Sep 8
Full
Sep 15
Last Quarter

Hourly Weather History & Observations

Time (CDT) Temp. Dew Point Humidity Pressure Visibility Wind Dir Wind Speed Gust Speed Precip Events Conditions
12:14 AM 60.8 °F 59.0 °F 94% 29.89 in 5.0 mi Calm Calm - N/A   Overcast
12:34 AM 60.8 °F 59.0 °F 94% 29.88 in 5.0 mi NE 3.5 mph - N/A   Overcast
12:54 AM 60.8 °F 59.0 °F 94% 29.88 in 5.0 mi Calm Calm - N/A   Overcast
1:34 AM 60.8 °F 59.0 °F 94% 29.88 in 4.0 mi NE 5.8 mph - N/A   Overcast
1:54 AM 60.8 °F 59.0 °F 94% 29.88 in 3.0 mi NE 4.6 mph - N/A Rain Heavy Rain
2:14 AM 60.8 °F 59.0 °F 94% 29.87 in 4.0 mi NE 3.5 mph - N/A   Drizzle
2:34 AM 60.8 °F 59.0 °F 94% 29.88 in 2.5 mi NE 4.6 mph - N/A   Overcast
2:54 AM 60.8 °F 59.0 °F 94% 29.89 in 1.8 mi NE 4.6 mph - N/A   Overcast
3:14 AM 60.8 °F 59.0 °F 94% 29.89 in 1.8 mi NE 4.6 mph - N/A   Overcast
3:34 AM 60.8 °F 59.0 °F 94% 29.89 in 1.2 mi NE 3.5 mph - N/A   Overcast
3:54 AM 60.8 °F 59.0 °F 94% 29.89 in 2.5 mi NE 3.5 mph - N/A   Overcast
4:14 AM 60.8 °F 59.0 °F 94% 29.90 in 4.0 mi NNE 3.5 mph - N/A   Overcast
4:34 AM 60.8 °F 59.0 °F 94% 29.90 in 3.0 mi NNE 4.6 mph - N/A   Drizzle
4:54 AM 60.8 °F 59.0 °F 94% 29.91 in 1.5 mi NNE 4.6 mph - N/A   Light Drizzle
5:14 AM 60.8 °F 59.0 °F 94% 29.91 in 1.2 mi NNE 3.5 mph - N/A   Overcast
5:34 AM 60.8 °F 59.0 °F 94% 29.91 in 1.8 mi NNE 4.6 mph - N/A   Overcast
5:54 AM 60.8 °F 59.0 °F 94% 29.92 in 2.5 mi NNE 5.8 mph - N/A   Overcast
6:14 AM 60.8 °F 59.0 °F 94% 29.92 in 2.5 mi NNE 4.6 mph - N/A   Overcast
6:34 AM 60.8 °F 59.0 °F 94% 29.93 in 4.0 mi NE 3.5 mph - N/A   Overcast
6:54 AM 60.8 °F 59.0 °F 94% 29.93 in 7.0 mi NE 4.6 mph - N/A   Overcast
7:14 AM 60.8 °F 59.0 °F 94% 29.93 in 4.0 mi Calm Calm - N/A   Overcast
7:34 AM 60.8 °F 59.0 °F 94% 29.93 in 5.0 mi NE 4.6 mph - N/A   Overcast
7:54 AM 60.8 °F 59.0 °F 94% 29.93 in 5.0 mi NE 3.5 mph - N/A   Overcast
8:14 AM 60.8 °F 59.0 °F 94% 29.93 in 7.0 mi NE 3.5 mph - N/A   Overcast
8:34 AM 60.8 °F 59.0 °F 94% 29.94 in 7.0 mi NE 5.8 mph - N/A   Overcast
8:54 AM 60.8 °F 59.0 °F 94% 29.95 in 5.0 mi NE 4.6 mph - N/A   Overcast
9:14 AM 60.8 °F 60.8 °F 100% 29.95 in 5.0 mi NNE 5.8 mph - N/A   Overcast
9:34 AM 60.8 °F 59.0 °F 94% 29.96 in 7.0 mi Calm Calm - N/A   Overcast
9:54 AM 60.8 °F 60.8 °F 100% 29.97 in 4.0 mi Calm Calm - N/A   Overcast
10:14 AM 62.6 °F 60.8 °F 94% 29.97 in 5.0 mi Calm Calm - N/A   Overcast
10:34 AM 60.8 °F 60.8 °F 100% 29.98 in 7.0 mi Calm Calm - N/A   Overcast
10:54 AM 62.6 °F 60.8 °F 94% 29.98 in 5.0 mi Calm Calm - N/A   Overcast
11:14 AM 62.6 °F 60.8 °F 94% 29.98 in 5.0 mi NNE 3.5 mph - N/A   Overcast
11:34 AM 62.6 °F 60.8 °F 94% 29.98 in 5.0 mi Calm Calm - N/A   Overcast
11:54 AM 64.4 °F 60.8 °F 88% 29.99 in 7.0 mi NE 3.5 mph - N/A   Overcast
12:14 PM 64.4 °F 60.8 °F 88% 29.98 in 10.0 mi Calm Calm - N/A   Overcast
12:34 PM 64.4 °F 60.8 °F 88% 29.99 in 10.0 mi Calm Calm - N/A   Overcast
12:54 PM 64.4 °F 60.8 °F 88% 29.99 in 10.0 mi NE 3.5 mph - N/A   Overcast
1:14 PM 66.2 °F 60.8 °F 83% 29.99 in 10.0 mi Calm Calm - N/A   Overcast
1:34 PM 66.2 °F 62.6 °F 88% 30.00 in 10.0 mi Calm Calm - N/A   Overcast
1:54 PM 68.0 °F 62.6 °F 83% 29.99 in 10.0 mi ENE 3.5 mph - N/A   Overcast
2:14 PM 68.0 °F 62.6 °F 83% 30.00 in 10.0 mi NE 3.5 mph - N/A   Overcast
2:34 PM 68.0 °F 62.6 °F 83% 29.99 in 10.0 mi Calm Calm - N/A   Overcast
2:54 PM 68.0 °F 62.6 °F 83% 29.99 in 10.0 mi Calm Calm - N/A   Overcast
3:14 PM 68.0 °F 62.6 °F 83% 29.98 in 10.0 mi ENE 4.6 mph - N/A   Overcast
3:34 PM 68.0 °F 62.6 °F 83% 29.99 in 10.0 mi ENE 3.5 mph - N/A   Overcast
3:54 PM 68.0 °F 62.6 °F 83% 29.99 in 10.0 mi ENE 3.5 mph - N/A   Overcast
4:14 PM 68.0 °F 62.6 °F 83% 29.99 in 10.0 mi Calm Calm - N/A   Overcast
4:34 PM 68.0 °F 62.6 °F 83% 29.99 in 10.0 mi Calm Calm - N/A   Overcast
4:54 PM 68.0 °F 62.6 °F 83% 30.00 in 10.0 mi Calm Calm - N/A   Overcast
5:14 PM 68.0 °F 62.6 °F 83% 30.00 in 10.0 mi East 3.5 mph - N/A   Overcast
5:34 PM 68.0 °F 62.6 °F 83% 30.00 in 10.0 mi ENE 3.5 mph - N/A   Overcast
5:54 PM 68.0 °F 62.6 °F 83% 30.00 in 10.0 mi ENE 3.5 mph - N/A   Overcast
6:14 PM 68.0 °F 62.6 °F 83% 30.01 in 10.0 mi ENE 3.5 mph - N/A   Overcast
6:34 PM 66.2 °F 62.6 °F 88% 30.01 in 10.0 mi Calm Calm - N/A   Overcast
6:54 PM 66.2 °F 62.6 °F 88% 30.02 in 10.0 mi ENE 3.5 mph - N/A   Overcast
7:14 PM 66.2 °F 62.6 °F 88% 30.01 in 10.0 mi NE 3.5 mph - N/A   Overcast
7:34 PM 64.4 °F 62.6 °F 94% 30.01 in 10.0 mi Calm Calm - N/A   Overcast
7:54 PM 64.4 °F 60.8 °F 88% 30.02 in 7.0 mi ENE 4.6 mph - N/A   Overcast
8:14 PM 64.4 °F 60.8 °F 88% 30.02 in 7.0 mi ENE 4.6 mph - N/A   Overcast
8:34 PM 62.6 °F 60.8 °F 94% 30.02 in 7.0 mi ENE 4.6 mph - N/A   Overcast
8:54 PM 62.6 °F 60.8 °F 94% 30.03 in 10.0 mi Calm Calm - N/A   Overcast
9:14 PM 62.6 °F 60.8 °F 94% 30.04 in 10.0 mi Calm Calm - N/A   Overcast
9:54 PM 62.6 °F 60.8 °F 94% 30.04 in 10.0 mi NE 3.5 mph - N/A   Overcast
10:14 PM 62.6 °F 60.8 °F 94% 30.05 in 7.0 mi ENE 3.5 mph - N/A   Overcast
10:34 PM 62.6 °F 60.8 °F 94% 30.06 in 7.0 mi NNE 3.5 mph - N/A   Overcast
10:54 PM 62.6 °F 60.8 °F 94% 30.05 in 7.0 mi NE 3.5 mph - N/A   Overcast
11:14 PM 62.6 °F 59.0 °F 88% 30.05 in 7.0 mi ENE 3.5 mph - N/A   Overcast
11:34 PM 62.6 °F 59.0 °F 88% 30.05 in 7.0 mi ENE 4.6 mph - N/A   Overcast
11:54 PM 60.8 °F 59.0 °F 94% 30.05 in 5.0 mi ENE 5.8 mph - N/A   Overcast